Flag for U.S.A. Weather past 2 weeks in Harrisburg, Pennsylvania, U.S.A.

Now
73 °F

Overcast.


Feels Like: 72 °F
Forecast: 71 / 84 °F
Wind: 3 mph from East

Location: Capital City Airport

Current Time: Aug 31, 2014 at 2:42:35 AM

Latest Report: Aug 31, 2014 at 1:56 AM


Visibility: 10 mi

Pressure: 30.11 "Hg

Humidity: 84%

Dew point: 68 °F

Location of HarrisburgLocation

Historic Weather in Harrisburg — Graph

°F

Harrisburg temperature yesterday

Maximum temperature yesterday: 78 °F (at 2:56 PM)
Minimum temperature yesterday: 62 °F (at 4:56 AM)
Average temperature yesterday: 70 °F

Past Weeks' High & Low Weather Summary

 TemperatureHumidityPressure
High88 °F (Aug 27, 3:56 PM)97% (Aug 21, 2:56 AM)30.24 "Hg (Aug 21, 2:56 AM)
Low50 °F (Aug 16, 5:56 AM)36% (Aug 16, 4:56 PM)29.82 "Hg (Aug 18, 6:56 PM)
Average70 °F74%30.03 "Hg
* Reported Aug 16 12:56 AM — Aug 31 12:56 AM, Harrisburg, Weather by CustomWeather, © 2014

Note: Actual official high and low records may vary slightly from our data, if they occured in-between our weather recording intervals... More about our weather records

Advertising

Harrisburg weather history for previous 24 hours

 ConditionsComfort  
Time TempWeatherWind HumidityBarometerVisibility
12:56 AM
Aug 31
73 °FMostly cloudy.5 mph81%30.11 "Hg10 mi
11:56 PM
Aug 30
73 °FOvercast.No wind79%30.12 "Hg10 mi
10:56 PM72 °FMostly cloudy.7 mph81%30.13 "Hg10 mi
9:56 PM73 °FPartly cloudy.6 mph76%30.13 "Hg10 mi
8:56 PM74 °FPassing clouds.6 mph76%30.13 "Hg10 mi
7:56 PM76 °FOvercast.12 mph72%30.11 "Hg10 mi
6:56 PM78 °FOvercast.7 mph69%30.11 "Hg10 mi
5:56 PM78 °FOvercast.5 mph69%30.12 "Hg10 mi
4:56 PM78 °FOvercast.7 mph66%30.13 "Hg10 mi
3:56 PM78 °FOvercast.6 mph66%30.14 "Hg10 mi
2:56 PM78 °FOvercast.8 mph64%30.16 "Hg10 mi
1:56 PM76 °FOvercast.9 mph67%30.18 "Hg10 mi
12:56 PM75 °FOvercast.7 mph66%30.20 "Hg10 mi
11:56 AM73 °FOvercast.5 mph71%30.22 "Hg10 mi
11:03 AM70 °FMostly cloudy.7 mph76%30.23 "Hg10 mi
10:56 AM71 °FMore clouds than sun.7 mph76%30.23 "Hg10 mi
9:56 AM67 °FMore clouds than sun.7 mph81%30.23 "Hg10 mi
8:56 AM65 °FOvercast.5 mph87%30.24 "Hg10 mi
7:56 AM63 °FOvercast.6 mph87%30.24 "Hg10 mi
6:56 AM62 °FMostly cloudy.5 mph90%30.24 "Hg10 mi
5:56 AM62 °FMostly cloudy.6 mph86%30.22 "Hg10 mi
4:56 AM62 °FPassing clouds.5 mph86%30.22 "Hg10 mi
3:56 AM63 °FPartly cloudy.5 mph84%30.22 "Hg10 mi
2:56 AM64 °FPassing clouds.3 mph78%30.23 "Hg10 mi
Weather by CustomWeather, © 2014

See weather overviewHow to use our weather pages